Regional Weather Roundup
Issued by NWS

Home | Current Version | Previous Version | Text Only | Print | Product List | Glossary Off
Versions: 1 2 3 4 5 6 7 8 9 10 11 12 13 14 15 16 17 18 19 20 21 22 23 24 25 26 27 28 29 30 31 32 33 34 35 36 37 38 39 40 41 42 43 44 45 46 47 48 49 50

000
ASUS45 KCYS 230810
RWRWY

WYOMING REGIONAL WEATHER ROUNDUP
NATIONAL WEATHER SERVICE CHEYENNE WY
200 AM MDT WED JUL 23 2014

NOTE:  "FAIR" INDICATES FEW OR NO CLOUDS BELOW 12,000 FEET
WITH NO SIGNIFICANT WEATHER AND/OR OBSTRUCTIONS TO VISIBILITY.

WYZ001-230900-
YELLOWSTONE NATIONAL PARK

CITY           SKY/WX    TMP DP  RH WIND       PRES   REMARKS
LK YELLOWSTONE   N/A     45  40  82 CALM      30.46F
W YELLOWSTONE  NOT AVBL

$$
WYZ002>013-054>058-071-098>099-230900-
NORTHERN WYOMING

CITY           SKY/WX    TMP DP  RH WIND       PRES   REMARKS
JACKSON        CLEAR     52  43  71 N6        30.33F
CODY           CLEAR     61  45  55 SW6       30.28F
GREYBULL       CLEAR     69  50  50 W13       30.19R
WORLAND        CLEAR     67  48  50 NE3       30.20S
SHERIDAN       CLEAR     62  55  77 S7        30.27F
BUFFALO        PTCLDY    62  51  67 SE5       30.36F
GILLETTE       CLEAR     64  57  78 SE8       30.31F
HULETT         FAIR      63  57  82 MISG      30.30
NEWCASTLE      FAIR      66  50  55 MISG      30.33

$$
WYZ014>020-022>026-101>103-230900-
CENTRAL WYOMING

CITY           SKY/WX    TMP DP  RH WIND       PRES   REMARKS
BIG PINEY      CLEAR     48  26  42 CALM      30.39F
PINEDALE       MOSUNNY   46  41  81 W6        30.40S
DUBOIS         FAIR      54  32  43 W10       30.41F
LANDER         PTCLDY    64  36  35 W6        30.28R
RIVERTON       PTCLDY    72  43  35 E8        30.28S
CASPER         CLEAR     64  54  69 N10       30.31R
DOUGLAS        CLEAR     70  56  61 S9        30.31R

$$
WYZ021-027>030-104>119-230900-
SOUTHERN WYOMING

CITY           SKY/WX    TMP DP  RH WIND       PRES   REMARKS
EVANSTON       CLEAR     63  35  35 SE9       30.37S
KEMMERER       SUNNY     59  32  36 N8        30.39F
FORT BRIDGER   FAIR      69  29  22 CALM      30.38F
ROCK SPRINGS   CLEAR     70  23  17 SE9       30.35S
DIXON          FAIR      64  28  25 E10       30.38R
RAWLINS        CLEAR     59  31  34 CALM      30.38S
SARATOGA       FAIR      64  37  36 S12       30.40S
LARAMIE        CLEAR     64  55  72 SW10      30.45R
CHEYENNE       CLEAR     66  60  81 S13       30.41S
TORRINGTON     CLEAR     71  61  70 SE14G23   30.28F
PINE BLUFFS    FAIR      68  59  73 E14G22    30.35S

$$


USA.gov is the U.S. government's official web portal to all federal, state and local government web resources and services.